Regional Weather Roundup
Issued by NWS

Home | Current Version | Previous Version | Graphics & Text | Print | Product List | Glossary On
Versions: 1 2 3 4 5 6 7 8 9 10 11 12 13 14 15 16 17 18 19 20 21 22 23 24 25 26 27 28 29 30 31 32 33 34 35 36 37 38 39 40 41 42 43 44 45 46 47 48 49 50
000
ASUS43 KLSX 230907
RWRMO

WEATHER SUMMARY FOR MISSOURI
NATIONAL WEATHER SERVICE SPRINGFIELD MO
400 AM CDT WED AUG 23 2017

NOTE: "FAIR" INDICATES FEW OR NO CLOUDS BELOW 12,000 FEET WITH NO
       SIGNIFICANT WEATHER AND/OR OBSTRUCTIONS TO VISIBILITY.
       CURRENT SKY AND/OR WEATHER CONDITIONS ARE NOT AVAILABLE FOR
       CHILLICOTHE AND FARMINGTON.

MOZ001>031-035>038-043-044-053-054-231000-
...NORTHERN AND WESTERN MISSOURI...

CITY           SKY/WX    TMP DP  RH WIND       PRES   REMARKS
KANSAS CTY INT CLEAR     58  53  84 N6        30.16F
KANSAS C DTWN  CLEAR     61  57  87 CALM      30.16S
LEE`S SUMMIT   CLEAR     60  56  86 MISG      30.16F
ST JOSEPH      CLEAR     53  53 100 CALM      30.17S
CHILLICOTHE      N/A     54  54 100 CALM      30.16F
KIRKSVILLE     CLEAR     55  32  41 NW6       30.15S

$$
MOZ066>068-077>081-088>096-101>105-231000-
...SOUTHWEST MISSOURI...

CITY           SKY/WX    TMP DP  RH WIND       PRES   REMARKS
SPRINGFIELD    CLOUDY    64  62  93 NE6       30.11F
JOPLIN         CLOUDY    65  62  90 NE5       30.12S
BRANSON          N/A     68  63  83 N5        30.11S

$$
MOZ032>034-039>042-045>050-055>058-069>072-231000-
...CENTRAL MISSOURI...

CITY           SKY/WX    TMP DP  RH WIND       PRES   REMARKS
COLUMBIA       CLEAR     57  54  89 N7        30.13S
JEFFERSON CITY CLEAR     61  58  90 W3        30.12S
ROLLA          CLEAR     59  56  89 CALM      30.13S
SEDALIA        CLEAR     58  57  97 N3        30.15F
WHITEMAN AFB   PTCLDY    55  55 100 N3        30.13F
WARRENSBURG    PTCLDY    55  52  88 CALM      30.15S
OSAGE BEACH    CLEAR     61  55  81 CALM      30.14R

$$
MOZ051-052-059>065-231000-
...EAST CENTRAL MISSOURI...

CITY           SKY/WX    TMP DP  RH WIND       PRES   REMARKS
ST LOUIS INTL  CLEAR     60  57  89 NW3       30.09S
SPIRIT OF STL  CLEAR     58  57  97 CALM      30.08F
ST CHARLES     CLEAR     63  55  75 N8        30.08S

$$
MOZ072>076-082>087-097>100-106>115-231000-
...SOUTH CENTRAL AND SOUTHEAST MISSOURI...

CITY           SKY/WX    TMP DP  RH WIND       PRES   REMARKS
CAPE GIRARDEAU CLOUDY    63  60  90 CALM      30.04S
FARMINGTON     CLOUDY    63  58  83 NW5       30.10R
POPLAR BLUFF   PTCLDY    66  64  93 N7        30.03S
WEST PLAINS    PTCLDY    65  60  84 N5        30.10S

$$



USA.gov is the U.S. government's official web portal to all federal, state and local government web resources and services.